FW6014 Weather Reports


Display with metric or nautical units.
time (UTC)temp
F
wind
direction
speed
MPH
gust
MPH
rain 1hr
in
rain 24hr
in
rain mn
in
humidity
%
barometer
mb
20260508041628 36 277 0.0 0.0 0.00 0.01 0.00 83 1008.4
20260508041540 36 277 0.0 0.0 0.00 0.03 0.01 84 1009.0
20260508041129 36 277 0.0 0.0 0.00 0.01 0.00 83 1008.5
20260508040629 37 277 0.0 0.0 0.00 0.01 0.00 82 1008.4
20260508040139 36 277 0.0 0.0 0.00 0.03 0.01 83 1009.1
20260508040130 37 277 0.0 1.0 0.00 0.02 0.00 83 1008.5
20260508035629 37 277 0.0 1.0 0.00 0.02 0.02 81 1008.5
20260508035130 37 277 0.0 1.0 0.00 0.03 0.02 78 1008.5
20260508034630 38 277 0.0 1.0 0.00 0.03 0.02 79 1008.5
20260508034530 37 277 0.0 1.0 0.00 0.03 0.01 78 1009.1
20260508034132 38 277 0.0 1.0 0.00 0.03 0.02 77 1008.6
20260508033122 37 277 0.0 1.0 0.00 0.08 0.01 79 1009.3
20260508032630 38 277 1.0 2.0 0.00 0.04 0.02 76 1008.6
20260508031629 38 277 1.0 3.0 0.00 0.04 0.02 76 1008.8
20260508031515 37 277 0.0 3.0 0.00 0.08 0.01 76 1009.4
20260508031128 38 277 0.0 2.0 0.00 0.04 0.02 76 1008.8
20260508030629 39 277 0.0 0.0 0.00 0.05 0.02 74 1008.8
20260508025626 40 277 0.0 1.0 0.00 0.05 0.02 73 1008.8
20260508025127 40 277 0.0 1.0 0.00 0.06 0.02 70 1008.7
20260508024625 40 277 0.0 1.0 0.00 0.07 0.02 64 1008.8
20260508024502 39 277 0.0 1.0 0.00 0.08 0.01 66 1009.3
20260508024118 40 277 0.0 1.0 0.00 0.07 0.02 72 1008.7
20260508023613 40 277 0.0 1.0 0.00 0.08 0.02 70 1008.7
20260508023109 41 277 0.0 1.0 0.00 0.08 0.02 67 1008.5
20260508023105 40 277 0.0 1.0 0.00 0.13 0.01 67 1009.1
20260508022607 41 277 0.0 1.0 0.00 0.08 0.02 66 1008.5
20260508021649 41 277 0.0 1.0 0.00 0.13 0.01 65 1009.0
20260508021602 42 277 1.0 1.0 0.00 0.09 0.02 67 1008.5
20260508021102 42 277 1.0 1.0 0.00 0.10 0.02 64 1008.6
20260508020601 42 277 1.0 1.0 0.00 0.12 0.02 61 1008.6
20260508020033 42 277 0.0 2.0 0.00 0.13 0.01 60 1009.1
20260508015602 43 277 1.0 2.0 0.00 0.12 0.02 57 1008.5
20260508015101 43 277 0.0 0.0 0.00 0.12 0.02 62 1008.5
20260508014629 43 277 0.0 0.0 0.00 0.13 0.01 59 1008.9
20260508014602 43 277 0.0 0.0 0.00 0.12 0.02 59 1008.4
20260508014101 43 277 0.0 0.0 0.00 0.12 0.02 59 1008.3
20260508013601 44 277 0.0 0.0 0.00 0.13 0.02 61 1008.3
20260508013016 44 277 0.0 1.0 0.00 0.13 0.01 59 1008.9
20260508012601 44 277 0.0 1.0 0.00 0.13 0.02 57 1008.3
20260508012102 45 277 1.0 1.0 0.00 0.13 0.02 54 1008.3
20260508011101 45 277 1.0 3.0 0.00 0.13 0.02 53 1008.3
20260508010015 45 277 1.0 2.0 0.00 0.13 0.01 54 1008.7
20260508005602 45 277 0.0 2.0 0.00 0.13 0.02 52 1008.2
20260508005101 46 277 1.0 2.0 0.00 0.13 0.02 53 1008.2
20260508004607 45 277 0.0 3.0 0.00 0.13 0.01 55 1008.6
20260508004601 46 277 1.0 3.0 0.00 0.13 0.02 55 1008.1
20260508003601 47 277 0.0 2.0 0.00 0.13 0.02 48 1007.9
20260508003102 47 277 0.0 4.0 0.00 0.13 0.02 49 1007.9
20260508003002 47 277 0.0 4.0 0.00 0.31 0.01 46 1008.4
20260508002602 47 277 0.0 4.0 0.00 0.13 0.02 47 1007.8
20260508002102 48 277 1.0 3.0 0.00 0.13 0.02 47 1007.8
20260508001609 47 277 0.0 3.0 0.00 0.31 0.01 47 1008.2
20260508001602 48 277 1.0 3.0 0.00 0.13 0.02 47 1007.7
20260508001102 48 277 0.0 3.0 0.00 0.13 0.02 46 1007.6
20260508000603 48 277 0.0 3.0 0.00 0.14 0.02 47 1007.5
20260508000004 48 277 0.0 3.0 0.00 0.31 0.01 47 1008.1
20260507235602 49 277 0.0 1.0 0.00 0.20 0.02 48 1007.6
20260507235100 49 277 0.0 2.0 0.00 0.26 0.02 47 1007.5
20260507234601 49 277 1.0 3.0 0.00 0.30 0.02 44 1007.5
20260507234553 49 277 0.0 3.0 0.00 0.31 0.01 44 1008.0
20260507234100 50 277 1.0 3.0 0.00 0.31 0.02 43 1007.4
20260507233147 50 277 0.0 4.0 0.00 0.38 0.01 44 1007.7
20260507233059 50 277 1.0 4.0 0.00 0.31 0.02 44 1007.2
20260507232600 50 277 1.0 4.0 0.00 0.32 0.02 44 1007.3
20260507231601 51 277 2.0 5.0 0.00 0.32 0.02 41 1007.1
20260507231536 50 277 1.0 5.0 0.00 0.38 0.01 40 1007.6
20260507231101 51 277 2.0 5.0 0.00 0.32 0.02 41 1007.0
20260507230557 52 277 1.0 5.0 0.00 0.33 0.02 41 1006.8
20260507230126 51 277 0.0 4.0 0.00 0.38 0.01 41 1007.1
20260507230058 51 277 2.0 4.0 0.00 0.35 0.02 41 1006.7
20260507225552 51 277 1.0 4.0 0.00 0.36 0.02 42 1006.6
20260507225047 51 277 1.0 3.0 0.00 0.37 0.02 42 1006.5
20260507224547 52 277 1.0 4.0 0.00 0.37 0.02 41 1006.5
20260507224524 51 277 0.0 4.0 0.00 0.38 0.01 41 1006.9
20260507224044 52 277 1.0 4.0 0.00 0.38 0.02 40 1006.4
20260507223545 52 277 1.0 4.0 0.00 0.38 0.02 40 1006.4
20260507223120 52 277 0.0 4.0 0.00 0.38 0.01 40 1006.8
20260507223042 52 277 1.0 4.0 0.00 0.38 0.02 39 1006.4
20260507222545 53 277 1.0 4.0 0.00 0.38 0.02 38 1006.3
20260507221518 53 277 0.0 5.0 0.00 0.38 0.01 39 1006.6
20260507221039 54 277 1.0 4.0 0.00 0.38 0.02 38 1006.0
20260507220541 55 277 1.0 4.0 0.00 0.38 0.02 38 1005.9
20260507215540 55 277 1.0 4.0 0.00 0.38 0.02 39 1006.0
20260507215041 56 277 1.0 4.0 0.00 0.38 0.02 37 1006.1
20260507214541 55 277 1.0 5.0 0.00 0.38 0.02 41 1006.2
20260507214523 55 277 1.0 5.0 0.00 0.38 0.01 41 1006.6
20260507214040 55 277 1.0 5.0 0.00 0.38 0.02 37 1006.1
20260507213540 56 277 1.0 4.0 0.00 0.38 0.02 38 1006.0
20260507212541 55 277 1.0 4.0 0.00 0.38 0.02 38 1006.1
20260507212031 56 277 2.0 6.0 0.00 0.38 0.02 38 1006.0
20260507211514 56 277 1.0 6.0 0.00 0.41 0.01 38 1006.3
20260507211031 56 277 1.0 5.0 0.00 0.39 0.02 39 1006.0
20260507210531 56 277 2.0 6.0 0.00 0.39 0.02 35 1005.9
20260507210108 55 277 2.0 6.0 0.00 0.41 0.01 38 1006.4
20260507210029 55 277 2.0 6.0 0.00 0.39 0.02 38 1006.0
20260507205529 55 277 2.0 5.0 0.00 0.39 0.02 37 1006.0
20260507205030 56 277 2.0 8.0 0.00 0.39 0.02 35 1005.9
20260507204529 56 277 2.0 8.0 0.00 0.40 0.02 37 1005.9
20260507204510 55 277 1.0 8.0 0.00 0.41 0.01 39 1006.3
20260507204031 55 277 1.0 5.0 0.00 0.41 0.02 40 1005.8
20260507203529 56 277 1.0 5.0 0.00 0.41 0.02 39 1005.4
20260507203102 56 277 0.0 3.0 0.00 0.45 0.01 39 1005.9
20260507203029 56 277 1.0 3.0 0.00 0.41 0.02 40 1005.4
20260507202528 57 277 1.0 3.0 0.00 0.41 0.02 37 1005.4
20260507202030 58 277 2.0 8.0 0.00 0.41 0.02 36 1005.3
20260507201530 59 277 1.0 8.0 0.00 0.41 0.02 36 1005.6
20260507201029 59 277 2.0 6.0 0.00 0.42 0.02 36 1005.3
20260507200530 58 277 1.0 6.0 0.00 0.42 0.02 34 1005.6
20260507200054 57 277 0.0 5.0 0.00 0.45 0.01 37 1005.8
20260507200029 58 277 1.0 4.0 0.00 0.42 0.02 38 1005.3
20260507195530 56 277 1.0 7.0 0.00 0.43 0.02 36 1005.6
20260507195030 56 277 1.0 7.0 0.00 0.43 0.02 36 1005.7
20260507194028 56 277 1.0 3.0 0.00 0.44 0.02 43 1005.6
20260507193530 56 277 1.0 4.0 0.00 0.44 0.02 39 1005.4
20260507193036 56 277 1.0 6.0 0.00 0.51 0.01 40 1006.0
20260507193029 56 277 2.0 6.0 0.00 0.45 0.02 40 1005.6
20260507192530 56 277 2.0 7.0 0.00 0.45 0.02 39 1005.6
20260507192029 57 277 2.0 7.0 0.00 0.46 0.02 38 1005.7
20260507191632 58 277 1.0 5.0 0.00 0.51 0.01 41 1006.1
20260507191529 58 277 2.0 5.0 0.00 0.46 0.02 39 1005.7
20260507191028 57 277 1.0 5.0 0.00 0.47 0.02 38 1005.7
20260507190530 56 277 1.0 4.0 0.00 0.48 0.02 41 1005.6
20260507185530 58 277 2.0 6.0 0.00 0.49 0.02 37 1005.9
20260507185029 59 277 3.0 11.0 0.00 0.49 0.02 37 1005.8
20260507184030 59 277 2.0 8.0 0.00 0.50 0.02 38 1005.9
20260507183529 60 277 2.0 6.0 0.00 0.51 0.02 35 1005.8
20260507183037 58 277 0.0 11.0 0.00 0.86 0.01 45 1006.2
20260507183030 58 277 3.0 11.0 0.00 0.52 0.02 45 1005.9
20260507182530 58 277 3.0 11.0 0.00 0.55 0.02 36 1006.0
20260507181630 59 277 3.0 8.0 0.00 0.86 0.01 39 1006.3
20260507181530 59 277 2.0 8.0 0.00 0.61 0.02 42 1006.0
20260507181029 59 277 2.0 9.0 0.00 0.63 0.02 40 1006.0
20260507180530 59 277 2.0 9.0 0.00 0.66 0.02 40 1006.0
20260507180030 59 277 2.0 8.0 0.00 0.71 0.02 43 1006.1
20260507180025 58 277 3.0 8.0 0.00 0.86 0.01 43 1006.5
20260507175029 58 277 2.0 7.0 0.00 0.82 0.02 46 1006.1
20260507174639 57 277 1.0 8.0 0.00 0.86 0.01 42 1006.5
20260507174529 58 277 3.0 8.0 0.00 0.84 0.02 41 1006.1
20260507174029 57 277 2.0 8.0 0.00 0.85 0.02 44 1006.1
20260507173022 55 277 1.0 5.0 0.00 0.87 0.01 53 1006.5
20260507172529 55 277 2.0 9.0 0.00 0.86 0.02 51 1006.1
20260507172029 54 277 3.0 9.0 0.00 0.86 0.02 52 1006.3
20260507171030 54 277 1.0 6.0 0.00 0.86 0.02 55 1006.4
20260507170529 52 277 1.0 3.0 0.00 0.86 0.02 53 1006.4
20260507170030 52 277 1.0 6.0 0.00 0.86 0.02 50 1006.4
20260507170012 51 277 0.0 4.0 0.00 0.87 0.01 50 1006.8
20260507165529 52 277 1.0 6.0 0.00 0.86 0.02 56 1006.6
20260507164611 52 277 1.0 5.0 0.00 0.87 0.01 58 1007.0
20260507164529 52 277 2.0 5.0 0.00 0.87 0.02 58 1006.7
20260507163532 53 277 1.0 5.0 0.00 0.87 0.02 62 1006.7
20260507163030 54 277 1.0 5.0 0.00 0.87 0.02 64 1006.7
20260507163007 53 277 1.0 5.0 0.00 0.87 0.01 64 1007.1
20260507162530 53 277 1.0 3.0 0.00 0.87 0.02 63 1006.7
20260507162030 54 277 1.0 3.0 0.00 0.87 0.02 63 1006.7
20260507161601 54 277 0.0 3.0 0.00 0.87 0.01 61 1006.9
20260507161529 54 277 1.0 3.0 0.00 0.87 0.02 61 1006.6
20260507161029 54 277 1.0 3.0 0.00 0.87 0.02 62 1006.7
20260507160529 54 277 1.0 6.0 0.00 0.87 0.02 62 1006.8
20260507160028 54 277 1.0 6.0 0.00 0.87 0.02 61 1006.7
20260507160003 54 277 0.0 6.0 0.00 0.87 0.01 61 1007.1
20260507155029 56 277 1.0 3.0 0.00 0.87 0.02 59 1006.7
20260507154029 55 277 1.0 3.0 0.00 0.87 0.02 62 1006.8
20260507153530 55 277 1.0 4.0 0.00 0.87 0.02 63 1006.9
20260507153029 55 277 1.0 4.0 0.00 0.87 0.02 63 1006.9
20260507153003 54 277 0.0 4.0 0.00 0.87 0.01 64 1007.3
20260507152530 55 277 1.0 3.0 0.00 0.87 0.02 61 1007.0
20260507152029 55 277 0.0 3.0 0.00 0.87 0.02 60 1007.0
20260507151602 54 277 0.0 2.0 0.00 0.87 0.01 63 1007.3
20260507151530 55 277 0.0 2.0 0.00 0.87 0.02 61 1007.0
20260507151029 55 277 1.0 3.0 0.00 0.87 0.02 61 1007.0
20260507150529 55 277 1.0 3.0 0.00 0.87 0.02 61 1007.0
20260507150030 55 277 1.0 3.0 0.00 0.87 0.02 59 1007.0
20260507150003 55 277 1.0 3.0 0.00 0.87 0.01 59 1007.3
20260507145530 55 277 2.0 5.0 0.00 0.87 0.02 61 1007.0
20260507145029 55 277 2.0 5.0 0.00 0.87 0.02 62 1006.9
20260507144603 55 277 0.0 3.0 0.00 0.87 0.01 63 1007.3
20260507144528 55 277 1.0 3.0 0.00 0.87 0.02 62 1007.0
20260507144031 56 277 1.0 3.0 0.00 0.87 0.02 62 1006.9
20260507143529 55 277 1.0 4.0 0.00 0.87 0.02 59 1007.0
20260507143203 55 277 0.0 4.0 0.00 0.87 0.01 62 1007.6
20260507143029 55 277 2.0 4.0 0.00 0.87 0.02 62 1007.2
20260507142529 55 277 1.0 4.0 0.00 0.87 0.02 66 1007.1
20260507142030 55 277 1.0 4.0 0.00 0.87 0.02 64 1007.0
20260507141030 55 277 1.0 4.0 0.00 0.87 0.02 65 1007.1
20260507135523 53 277 2.0 7.0 0.00 0.87 0.02 65 1007.5
20260507134531 53 277 0.0 3.0 0.00 0.87 0.01 65 1007.8
20260507134522 54 277 1.0 3.0 0.00 0.87 0.02 65 1007.4
20260507133130 53 277 1.0 3.0 0.00 0.87 0.01 69 1008.0
20260507133015 53 277 0.0 3.0 0.00 0.87 0.02 69 1007.6
20260507131558 52 277 1.0 2.0 0.00 0.87 0.01 69 1008.1
20260507131515 53 277 0.0 2.0 0.00 0.87 0.02 69 1007.7
20260507131015 53 277 0.0 2.0 0.00 0.87 0.02 71 1007.6
20260507130516 52 277 0.0 3.0 0.00 0.87 0.02 70 1007.6
20260507130119 52 277 0.0 3.0 0.00 0.87 0.01 71 1008.0
20260507130013 52 277 0.0 3.0 0.00 0.87 0.02 71 1007.6
20260507125510 52 277 1.0 2.0 0.00 0.87 0.02 70 1007.7
20260507125012 51 277 0.0 2.0 0.00 0.87 0.02 72 1007.8
20260507124521 51 277 0.0 0.0 0.00 0.87 0.01 72 1008.1
20260507124511 51 277 0.0 1.0 0.00 0.87 0.02 75 1007.7
20260507124011 51 277 0.0 1.0 0.00 0.87 0.02 74 1007.7
20260507123512 50 277 0.0 1.0 0.00 0.87 0.02 78 1007.7
20260507123116 49 277 0.0 2.0 0.00 0.87 0.01 78 1008.3
20260507123012 49 277 0.0 2.0 0.00 0.87 0.02 77 1007.9
20260507122511 48 277 1.0 2.0 0.00 0.87 0.02 78 1007.7
20260507122011 47 277 1.0 2.0 0.00 0.87 0.02 79 1007.7
20260507121520 46 277 0.0 2.0 0.00 0.87 0.01 82 1008.2
20260507121513 47 277 1.0 2.0 0.00 0.87 0.02 82 1007.8
20260507121010 46 277 0.0 2.0 0.00 0.87 0.02 83 1007.7
20260507120512 45 277 0.0 1.0 0.00 0.87 0.02 84 1007.6
20260507120108 45 277 0.0 1.0 0.00 0.87 0.01 84 1008.0
20260507120008 45 277 0.0 1.0 0.00 0.87 0.02 84 1007.7
20260507115506 45 277 0.0 1.0 0.00 0.87 0.02 85 1007.7
20260507115007 44 277 0.0 0.0 0.00 0.87 0.02 86 1007.8
20260507114514 43 277 0.0 0.0 0.00 0.87 0.01 89 1008.1
20260507114507 43 277 0.0 0.0 0.00 0.87 0.02 89 1007.7
20260507114008 42 277 0.0 0.0 0.00 0.87 0.02 91 1007.8
20260507113508 42 277 0.0 0.0 0.00 0.87 0.02 91 1008.0
20260507113135 42 277 0.0 0.0 0.00 0.87 0.01 91 1008.3
20260507113006 42 277 0.0 0.0 0.00 0.87 0.02 91 1008.0
20260507112508 42 277 0.0 0.0 0.00 0.87 0.02 92 1008.2
20260507112003 41 277 0.0 0.0 0.01 0.87 0.02 91 1008.3
20260507111510 41 277 0.0 0.0 0.01 0.87 0.01 92 1008.4
20260507111503 41 277 0.0 0.0 0.01 0.87 0.02 92 1008.1
20260507111002 41 277 0.0 0.0 0.01 0.87 0.02 91 1008.0
20260507110503 42 277 0.0 0.0 0.01 0.87 0.02 91 1008.0
20260507110106 41 277 0.0 0.0 0.01 0.87 0.01 91 1008.4
20260507110004 42 277 0.0 0.0 0.01 0.87 0.02 92 1008.0
20260507105501 42 277 0.0 0.0 0.01 0.87 0.02 91 1007.9
20260507105002 42 277 0.0 0.0 0.01 0.87 0.02 90 1008.1
20260507104514 41 277 0.0 0.0 0.01 0.87 0.01 89 1008.4
20260507104502 42 277 0.0 0.0 0.01 0.87 0.02 89 1008.1
20260507104000 41 277 0.0 0.0 0.01 0.87 0.02 92 1008.1
20260507103502 41 277 0.0 0.0 0.01 0.87 0.02 93 1008.2
20260507102501 41 277 0.0 0.0 0.01 0.87 0.02 94 1007.9
20260507102002 41 277 0.0 0.0 0.00 0.86 0.01 94 1007.7
20260507101502 40 277 0.0 0.0 0.00 0.86 0.00 94 1007.9
20260507101000 40 277 0.0 0.0 0.00 0.86 0.01 94 1007.6
20260507100501 40 277 0.0 0.0 0.00 0.86 0.01 95 1007.6
20260507100055 40 277 0.0 0.0 0.00 0.86 0.00 95 1007.9
20260507100001 40 277 0.0 0.0 0.00 0.86 0.01 95 1007.7
20260507095502 40 277 0.0 0.0 0.00 0.86 0.01 95 1007.6
20260507095001 41 277 0.0 0.0 0.00 0.86 0.01 95 1007.5
20260507094630 40 277 0.0 0.0 0.00 0.86 0.00 95 1007.8
20260507094502 41 277 0.0 0.0 0.00 0.86 0.01 95 1007.5
20260507093027 41 277 0.0 0.0 0.00 0.86 0.00 95 1007.6
20260507093002 41 277 0.0 0.0 0.00 0.86 0.01 95 1007.3
20260507092502 42 277 0.0 0.0 0.00 0.86 0.01 95 1007.3
20260507092002 42 277 0.0 0.0 0.00 0.86 0.01 95 1007.2
20260507091002 42 277 0.0 0.0 0.00 0.86 0.01 95 1007.2
20260507090501 42 277 0.0 0.0 0.00 0.86 0.01 95 1007.4
20260507090009 42 277 0.0 0.0 0.00 0.86 0.00 95 1007.4
20260507090003 42 277 0.0 0.0 0.00 0.86 0.01 95 1007.2
20260507085502 42 277 0.0 0.0 0.00 0.86 0.01 95 1007.3
20260507084604 42 277 0.0 0.0 0.00 0.86 0.00 94 1007.6
20260507084501 42 277 0.0 0.0 0.00 0.86 0.01 94 1007.4
20260507083503 42 277 0.0 0.0 0.00 0.86 0.01 94 1007.5
20260507083017 42 277 0.0 0.0 0.00 0.86 0.00 94 1007.6
20260507082955 42 277 0.0 0.0 0.00 0.86 0.01 94 1007.4
20260507082456 42 277 0.0 0.0 0.00 0.86 0.01 94 1007.1
20260507081953 42 277 0.0 0.0 0.00 0.86 0.01 94 1007.1
20260507081540 42 277 0.0 0.0 0.00 0.86 0.00 94 1007.1
20260507081451 43 277 0.0 0.0 0.00 0.86 0.01 94 1006.9
20260507080950 43 277 0.0 0.0 0.00 0.86 0.01 93 1007.0
20260507080451 43 277 0.0 0.0 0.00 0.86 0.01 93 1006.9
20260507080133 42 277 0.0 0.0 0.00 0.86 0.00 93 1007.1
20260507075948 43 277 0.0 0.0 0.00 0.86 0.01 93 1006.8
20260507075448 43 277 0.0 0.0 0.00 0.86 0.01 93 1006.8
20260507074531 43 277 0.0 0.0 0.00 0.86 0.00 92 1007.3
20260507074447 43 277 0.0 0.0 0.00 0.86 0.01 92 1007.1
20260507073946 43 277 0.0 0.0 0.00 0.86 0.01 91 1007.1
20260507073442 43 277 0.0 0.0 0.00 0.86 0.01 92 1007.3
20260507073125 43 277 0.0 0.0 0.00 0.86 0.86 92 1007.6
20260507072940 43 277 0.0 0.0 0.00 0.86 0.01 92 1007.5
20260507072440 43 277 0.0 0.0 0.00 0.86 0.01 93 1007.3
20260507071940 43 277 0.0 0.0 0.00 0.86 0.01 93 1007.3
20260507070932 44 277 0.0 1.0 0.00 0.86 0.01 92 1007.0
20260507070432 44 277 0.0 3.0 0.00 0.86 0.01 91 1007.2
20260507070118 43 277 0.0 3.0 0.00 0.86 0.86 91 1007.3
20260507065931 44 277 0.0 3.0 0.00 0.86 0.01 91 1007.2
20260507065430 44 277 0.0 2.0 0.00 0.86 0.01 91 1007.1
20260507064930 44 277 0.0 2.0 0.00 0.86 0.01 91 1006.9
20260507064650 43 277 0.0 2.0 0.00 0.86 0.86 91 1007.2
20260507063929 44 277 0.0 2.0 0.00 0.86 0.01 92 1007.1
20260507063103 44 277 0.0 3.0 0.00 0.86 0.86 92 1007.1
20260507062929 44 277 1.0 3.0 0.00 0.86 0.01 92 1006.8
20260507062430 44 277 1.0 3.0 0.00 0.86 0.01 92 1006.7
20260507061929 44 277 1.0 3.0 0.00 0.86 0.01 92 1006.7
20260507061504 44 277 0.0 3.0 0.00 0.86 0.86 93 1006.8
20260507061430 44 277 1.0 3.0 0.00 0.86 0.01 93 1006.6
20260507060930 44 277 1.0 3.0 0.00 0.86 0.01 93 1006.5
20260507060429 44 277 0.0 2.0 0.00 0.86 0.01 93 1006.6
20260507055929 45 277 0.0 0.0 0.00 0.86 0.01 94 1006.5
20260507055423 45 277 0.0 1.0 0.00 0.86 0.01 93 1006.5
20260507054649 45 277 0.0 2.0 0.00 0.86 0.86 93 1006.6
20260507054416 45 277 1.0 3.0 0.00 0.86 0.01 93 1006.5
20260507053917 45 277 1.0 3.0 0.00 0.86 0.01 93 1006.7
20260507053416 45 277 1.0 3.0 0.00 0.86 0.01 94 1006.5
20260507053031 45 277 0.0 3.0 0.00 0.86 0.86 94 1006.6
20260507052917 45 277 1.0 3.0 0.00 0.86 0.01 94 1006.5
20260507052417 45 277 1.0 2.0 0.00 0.86 0.01 94 1006.3
20260507051632 45 277 0.0 0.0 0.00 0.86 0.86 94 1006.4
20260507051413 45 277 0.0 1.0 0.00 0.86 0.01 94 1006.3
20260507050910 45 277 1.0 3.0 0.00 0.86 0.01 94 1006.3
20260507050057 45 277 1.0 3.0 0.01 0.86 0.86 94 1006.4
20260507045907 45 277 0.0 2.0 0.01 0.86 0.01 94 1006.5
20260507045405 46 277 0.0 2.0 0.02 0.86 0.01 94 1006.3
20260507044621 45 277 0.0 2.0 0.02 0.86 0.86 94 1006.5
20260507044403 46 277 1.0 4.0 0.02 0.86 0.01 94 1006.3
20260507043902 46 277 1.0 4.0 0.02 0.86 0.01 93 1006.5
20260507043401 46 277 1.0 3.0 0.02 0.86 0.01 93 1006.7
20260507043015 45 277 1.0 4.0 0.02 0.86 0.86 93 1006.8
20260507042901 46 277 2.0 4.0 0.02 0.86 0.01 92 1006.7
20260507042400 46 277 2.0 5.0 0.03 0.86 0.01 93 1006.8
20260507041901 46 277 2.0 5.0 0.03 0.86 0.01 93 1006.8